Huvudsida
METAR-TAF:

METAR-TAF

Flygplatser :

Yasuj Airport

Yasuj, Iran

latitud: 30-41-49N, longitud: 051-33E, höjd: 1825 m

Aktuellt väderrapport

Denna rapport gjordes för 1 timme och 8 minuter sedan, klockan 04:00 UTC
Stilla vind
Temperatur 2°C
Fuktighet 93%
Tryck 1017 hPa
Sikt 10 km eller mer
Få moln på en höjd av 3000 ft, Cumulonimbus.
Spridda moln på en höjd av 4000 ft

METAR: OISY 200400Z 00000KT 9999 FEW030CB SCT040 02/01 Q1017

Tid: 08:38 (05:08 UTC)


TAF: saknas

Aktuella väderrapporter och prognoser från 4000 flygplatser (METAR- och TAF-rapporter).

De tillgängliga stationerna syns som gula och röda prickar på kartan.

För musen över prickarna för att se namnen på stationerna.

Klicka sedan för att få väderrapporter och prognoser.

För att ändra kartan: Klicka på de gröna knapparna med ett svart kors på för att zooma in; den gröna knappen med ett streck på för att zooma ut; eller på de gröna pilarna för angränsande kartor.


METAR-TAF: